Regional Weather Roundup
Issued by NWS

Home | Current Version | Previous Version | Graphics & Text | Print | Product List | Glossary On
Versions: 1 2 3 4 5 6 7 8 9 10 11 12 13 14 15 16 17 18 19 20 21 22 23 24 25 26 27 28 29 30 31 32 33 34 35 36 37 38 39 40 41 42 43 44 45 46 47 48 49 50
268
ASUS43 KOAX 242002
RWRNE

WEATHER ROUNDUP FOR NEBRASKA
NATIONAL WEATHER SERVICE OMAHA NE
300 PM CDT TUE MAY 24 2016

NOTES: SATELLITE DATA IS BEING USED TO AUGMENT CLOUD COVER ABOVE
       12000 FEET.
       "FAIR" INDICATES FEW OR NO CLOUDS BELOW 12,000 FEET WITH NO
       SIGNIFICANT WEATHER AND/OR OBSTRUCTIONS TO VISIBILITY.

  * THESE STATIONS DO NOT REPORT WEATHER SUCH AS RAIN...SNOW OR FOG.

NEZ001>004-019>022-054>056-242100-
NEBRASKA PANHANDLE

CITY           SKY/WX    TMP DP  RH WIND       PRES   REMARKS
SCOTTSBLUFF    MOSUNNY   76  48  37 S15       29.86F
ALLIANCE       SUNNY     75  47  36 S21G31    29.88F
CHADRON        MOSUNNY   79  43  27 S18G25    29.84F
SIDNEY         MOSUNNY   77  48  35 SE18G29   29.90F
$$

NEZ057>060-069>072-079>082-242100-
SOUTHWEST NEBRASKA

CITY           SKY/WX    TMP DP  RH WIND       PRES   REMARKS
NORTH PLATTE   SUNNY     79  53  40 S15G23    29.88F
IMPERIAL       PTSUNNY   73  57  57 SE20G28   29.89F
LEXINGTON      SUNNY     77  57  50 S10       29.89F
MCCOOK         CLOUDY    75  60  59 S14G26    29.88F
$$

NEZ005>010-023>029-035>040-094-242100-
NORTH CENTRAL NEBRASKA

CITY           SKY/WX    TMP DP  RH WIND       PRES   REMARKS
VALENTINE      SUNNY     79  42  26 S14       29.87F
AINSWORTH      SUNNY     79  47  32 S6        29.89F
BROKEN BOW     SUNNY     79  56  45 S12G18    29.89F
ORD            SUNNY     80  55  42 SE6       29.86F
$$

NEZ041-046>049-061>064-073>077-083>087-242100-
SOUTH CENTRAL NEBRASKA

CITY           SKY/WX    TMP DP  RH WIND       PRES   REMARKS
GRAND ISLAND   SUNNY     78  55  44 S8        29.90S
HASTINGS       SUNNY     77  59  53 SW6       29.89F
KEARNEY *      SUNNY     79  55  44 S13       29.90S
YORK           SUNNY     77  59  53 CALM      29.89F
$$

NEZ011>018-030>034-042>045-242100-
NORTHEAST NEBRASKA

CITY           SKY/WX    TMP DP  RH WIND       PRES   REMARKS
NORFOLK        SUNNY     83  58  42 VRB6      29.86F
ALBION         SUNNY     81  51  35 SW7       29.87F
BLAIR          MOSUNNY   80  62  53 S3        29.90R
FREMONT        SUNNY     80  62  54 CALM      29.90R
TEKAMAH        CLOUDY    81  65  58 E6        29.87S
$$

NEZ050>053-065>068-078-088>093-242100-
SOUTHEAST NEBRASKA

CITY           SKY/WX    TMP DP  RH WIND       PRES   REMARKS
LINCOLN        SUNNY     80  63  55 VRB7      29.89F
OMAHA EPPLEY   PTSUNNY   81  60  48 SE8       29.89R
FALLS CITY     SUNNY     83  62  49 SW9       29.89R
PLATTSMOUTH    CLOUDY    80  61  53 S8        29.91R
$$

NEZ044-045-051>053-067-242100-
OMAHA AREA

CITY           SKY/WX    TMP DP  RH WIND       PRES   REMARKS
OMAHA EPPLEY   PTSUNNY   81  60  48 SE8       29.89R
BLAIR          MOSUNNY   80  62  53 S3        29.90R
FREMONT        SUNNY     80  62  54 CALM      29.90R
PLATTSMOUTH    CLOUDY    80  61  53 S8        29.91R
$$




USA.gov is the U.S. government's official web portal to all federal, state and local government web resources and services.